QPF
0.00 0.00 0.00 0.00 0.00 0.00 0.00 0.00 0.00 0.00 0.00 0.00 0.00 0.00 0.00 0.00 0.00 0.00 0.00 0.00 0.00 0.00 0.00 0.00 0.00 0.00 0.00 0.00 0.00 0.00 0.02 0.01 0.00 0.00 0.00 0.03 0.05 0.03 0.06 0.01 0.00 0.00 0.00 0.00 0.00
0.00 0.00 0.00 0.00 0.00 0.00 0.00 0.00 0.00 0.00 0.00 0.00 0.00 0.00 0.00 0.00 0.00 0.00 0.00 0.00 0.00 0.00 0.00 0.00 0.00 0.00 0.00 0.00 0.00 0.00 0.00 0.02 0.00 0.00 0.00 0.02 0.00 0.01 0.02 0.00 0.00 0.00 0.00 0.00 0.00
0.00 0.00 0.00 0.00 0.00 0.00 0.00 0.00 0.00 0.00 0.00 0.00 0.00 0.00 0.00 0.00 0.00 0.00 0.00 0.00 0.00 0.00 0.00 0.00 0.00 0.00 0.00 0.00 0.00 0.00 0.00 0.00 0.00 0.00 0.00 0.00 0.02 0.01 0.00 0.00 0.00 0.00 0.00 0.00 0.00
0.00 0.00 0.00 0.00 0.00 0.00 0.00 0.00 0.00 0.00 0.00 0.00 0.00 0.00 0.00 0.00 0.00 0.00 0.00 0.00 0.00 0.00 0.00 0.00 0.00 0.00 0.00 0.00 0.00 0.00 0.00 0.00 0.00 0.00 0.00 0.00 0.01 0.00 0.00 0.00 0.00 0.00 0.00 0.00 0.00
0.00 0.00 0.00 0.00 0.00 0.00 0.00 0.00 0.00 0.00 0.00 0.00 0.00 0.00 0.00 0.00 0.00 0.00 0.00 0.00 0.00 0.00 0.00 0.00 0.00 0.00 0.00 0.00 0.00 0.00 0.00 0.00 0.00 0.00 0.00 0.00 0.00 0.00 0.02 0.00 0.00 0.00 0.00 0.00 0.00
0.00 0.00 0.00 0.00 0.00 0.00 0.00 0.00 0.00 0.00 0.00 0.00 0.00 0.00 0.00 0.00 0.00 0.00 0.00 0.00 0.00 0.00 0.00 0.00 0.00 0.00 0.00 0.00 0.00 0.00 0.00 0.00 0.00 0.00 0.00 0.00 0.00 0.00 0.01 0.00 0.00 0.00 0.00 0.00 0.00
0.00 0.00 0.00 0.00 0.00 0.00 0.00 0.00 0.00 0.00 0.00 0.00 0.00 0.00 0.00 0.00 0.00 0.00 0.00 0.00 0.00 0.00 0.00 0.00 0.00 0.00 0.00 0.00 0.00 0.00 0.00 0.00 0.00 0.00 0.00 0.00 0.00 0.01 0.00 0.00 0.00 0.00 0.00 0.00 0.00
0.00 0.00 0.00 0.00 0.00 0.00 0.00 0.00 0.00 0.00 0.00 0.00 0.00 0.00 0.00 0.00 0.00 0.00 0.00 0.00 0.00 0.00 0.00 0.00 0.00 0.00 0.00 0.00 0.00 0.00 0.00 0.00 0.00 0.00 0.00 0.00 0.00 0.04 0.06 0.01 0.00 0.00 0.00 0.00 0.00
0.00 0.00 0.00 0.00 0.00 0.00 0.00 0.00 0.00 0.00 0.00 0.00 0.00 0.00 0.00 0.00 0.00 0.00 0.00 0.00 0.00 0.00 0.00 0.00 0.00 0.00 0.00 0.00 0.00 0.00 0.00 0.00 0.00 0.00 0.00 0.00 0.00 0.00 0.03 0.01 0.00 0.00 0.00 0.00 0.00
0.00 0.00 0.00 0.00 0.00 0.00 0.00 0.00 0.00 0.00 0.00 0.00 0.00 0.00 0.00 0.00 0.00 0.00 0.00 0.00 0.00 0.00 0.00 0.00 0.00 0.00 0.00 0.00 0.00 0.00 0.00 0.00 0.00 0.00 0.00 0.00 0.00 0.00 0.00 0.00 0.00 0.00 0.00 0.00 0.00
0.00 0.00 0.00 0.00 0.00 0.00 0.00 0.00 0.00 0.00 0.00 0.00 0.00 0.00 0.00 0.00 0.00 0.00 0.00 0.00 0.00 0.00 0.00 0.00 0.00 0.00 0.00 0.00 0.00 0.00 0.00 0.00 0.00 0.00 0.00 0.00 0.00 0.00 0.00 0.00 0.01 0.00 0.00 0.00 0.00
0.00 0.00 0.00 0.00 0.00 0.00 0.00 0.00 0.00 0.00 0.00 0.00 0.00 0.00 0.00 0.00 0.00 0.00 0.00 0.00 0.00 0.00 0.00 0.00 0.00 0.00 0.00 0.00 0.00 0.00 0.00 0.00 0.00 0.00 0.00 0.00 0.00 0.00 0.00 0.00 0.00 0.00 0.00 0.00 0.00
0.00 0.00 0.00 0.00 0.00 0.00 0.00 0.00 0.00 0.00 0.00 0.00 0.00 0.00 0.00 0.00 0.00 0.00 0.00 0.00 0.00 0.00 0.00 0.00 0.00 0.00 0.00 0.00 0.00 0.00 0.00 0.00 0.00 0.00 0.00 0.01 0.01 0.01 0.01 0.00 0.00 0.00 0.00 0.00 0.00
0.00 0.00 0.00 0.00 0.00 0.00 0.00 0.00 0.00 0.00 0.00 0.00 0.00 0.00 0.00 0.00 0.00 0.00 0.00 0.00 0.00 0.00 0.00 0.00 0.00 0.00 0.00 0.00 0.00 0.00 0.00 0.00 0.00 0.00 0.00 0.00 0.00 0.00 0.00 0.00 0.00 0.00 0.00 0.00 0.00
0.00 0.00 0.00 0.00 0.00 0.00 0.00 0.00 0.00 0.00 0.00 0.00 0.00 0.00 0.00 0.00 0.00 0.00 0.00 0.00 0.00 0.00 0.00 0.00 0.00 0.00 0.00 0.00 0.00 0.00 0.00 0.00 0.00 0.00 0.00 0.00 0.00 0.00 0.00 0.00 0.00 0.00 0.00 0.00 0.00
0.00 0.00 0.00 0.00 0.00 0.00 0.00 0.00 0.00 0.00 0.00 0.00 0.00 0.00 0.00 0.00 0.00 0.00 0.00 0.00 0.00 0.00 0.00 0.00 0.00 0.00 0.00 0.00 0.00 0.00 0.00 0.00 0.00 0.00 0.00 0.00 0.00 0.00 0.00 0.00 0.00 0.00 0.00 0.00 0.00
0.00 0.00 0.00 0.00 0.00 0.00 0.00 0.00 0.00 0.00 0.00 0.00 0.00 0.00 0.00 0.00 0.00 0.00 0.00 0.00 0.00 0.00 0.00 0.00 0.00 0.00 0.00 0.00 0.00 0.00 0.00 0.00 0.00 0.00 0.00 0.00 0.00 0.00 0.00 0.00 0.00 0.00 0.00 0.00 0.00
0.00 0.00 0.00 0.00 0.00 0.00 0.00 0.00 0.00 0.00 0.00 0.00 0.00 0.00 0.00 0.00 0.00 0.00 0.00 0.00 0.00 0.00 0.00 0.00 0.00 0.00 0.00 0.00 0.00 0.00 0.00 0.00 0.00 0.00 0.00 0.00 0.00 0.00 0.00 0.00 0.00 0.00 0.00 0.00 0.00
0.00 0.00 0.00 0.00 0.00 0.00 0.00 0.00 0.00 0.00 0.00 0.00 0.00 0.00 0.00 0.00 0.00 0.00 0.00 0.00 0.00 0.00 0.00 0.00 0.00 0.00 0.00 0.00 0.00 0.00 0.00 0.00 0.00 0.00 0.00 0.00 0.00 0.00 0.00 0.00 0.00 0.00 0.00 0.00 0.00
0.00 0.00 0.00 0.00 0.00 0.00 0.00 0.00 0.00 0.00 0.00 0.00 0.00 0.00 0.00 0.00 0.00 0.00 0.00 0.00 0.00 0.00 0.00 0.00 0.00 0.00 0.00 0.00 0.00 0.00 0.00 0.00 0.00 0.00 0.00 0.00 0.00 0.00 0.00 0.00 0.00 0.00 0.00 0.00 0.00
0.00 0.00 0.00 0.00 0.00 0.00 0.00 0.00 0.00 0.00 0.00 0.00 0.00 0.00 0.00 0.00 0.00 0.00 0.00 0.00 0.00 0.00 0.00 0.00 0.00 0.00 0.00 0.00 0.00 0.00 0.00 0.00 0.00 0.00 0.00 0.00 0.00 0.00 0.00 0.00 0.00 0.00 0.00 0.00 0.00
0.00 0.00 0.00 0.00 0.00 0.00 0.00 0.00 0.00 0.00 0.00 0.00 0.00 0.00 0.00 0.00 0.00 0.00 0.00 0.00 0.00 0.00 0.00 0.00 0.00 0.00 0.00 0.00 0.00 0.00 0.00 0.00 0.00 0.00 0.00 0.00 0.00 0.00 0.00 0.00 0.00 0.00 0.00 0.00 0.00
0.00 0.00 0.00 0.00 0.00 0.00 0.00 0.00 0.00 0.00 0.00 0.00 0.00 0.00 0.00 0.00 0.00 0.00 0.00 0.00 0.00 0.00 0.00 0.00 0.01 0.00 0.00 0.00 0.00 0.00 0.00 0.00 0.00 0.00 0.00 0.00 0.00 0.00 0.00 0.00 0.00 0.00 0.00 0.00 0.00
0.00 0.00 0.00 0.00 0.00 0.00 0.00 0.00 0.00 0.00 0.00 0.00 0.01 0.02 0.01 0.00 0.00 0.00 0.00 0.00 0.00 0.00 0.00 0.01 0.01 0.00 0.00 0.00 0.00 0.00 0.00 0.00 0.00 0.00 0.00 0.00 0.00 0.00 0.00 0.00 0.00 0.00 0.00 0.00 0.00
0.00 0.00 0.00 0.00 0.00 0.00 0.00 0.00 0.00 0.00 0.00 0.01 0.05 0.11 0.03 0.00 0.00 0.00 0.00 0.00 0.00 0.00 0.00 0.01 0.00 0.00 0.00 0.00 0.00 0.00 0.00 0.00 0.00 0.00 0.00 0.00 0.00 0.00 0.00 0.00 0.00 0.00 0.00 0.00 0.00
0.00 0.00 0.00 0.00 0.00 0.00 0.00 0.00 0.00 0.00 0.00 0.00 0.01 0.01 0.00 0.00 0.00 0.00 0.00 0.00 0.00 0.00 0.00 0.01 0.00 0.01 0.00 0.00 0.00 0.00 0.00 0.00 0.00 0.00 0.00 0.00 0.00 0.00 0.00 0.00 0.00 0.00 0.00 0.00 0.00
0.00 0.00 0.00 0.00 0.00 0.00 0.00 0.01 0.01 0.00 0.00 0.00 0.00 0.00 0.00 0.00 0.00 0.00 0.00 0.00 0.00 0.00 0.00 0.03 0.01 0.02 0.00 0.00 0.00 0.00 0.00 0.00 0.00 0.00 0.00 0.00 0.00 0.00 0.00 0.00 0.00 0.00 0.00 0.00 0.00
MSLP
1018.35 1017.80 1017.27 1016.79 1016.25 1015.68 1015.14 1014.57 1014.03 1013.66 1013.28 1012.88 1012.55 1012.32 1012.09 1011.99 1011.71 1011.38 1010.17 1007.45 1007.33 1007.22 1007.45 1008.17 1008.81 1009.05 1009.34 1009.54 1009.21 1008.99 1009.44 1009.04 1008.03 1007.29 1006.49 1006.02 1006.53 1006.79 1007.45 1008.07 1008.51 1009.21 1009.95 1010.83 1012.16
1018.17 1017.59 1017.02 1016.48 1015.95 1015.37 1014.79 1014.27 1013.75 1013.25 1012.87 1012.61 1012.35 1012.09 1011.75 1011.61 1011.41 1009.98 1005.65 1005.86 1006.39 1006.77 1007.25 1007.91 1008.57 1009.06 1009.67 1009.49 1009.28 1009.16 1008.91 1007.83 1006.69 1006.03 1005.78 1005.61 1005.92 1006.69 1007.40 1008.05 1008.95 1009.49 1010.36 1011.53 1012.33
1018.05 1017.44 1016.77 1016.14 1015.52 1015.01 1014.45 1013.79 1013.27 1012.85 1012.47 1012.12 1012.03 1011.76 1011.57 1011.60 1010.77 1005.91 1003.27 1004.75 1005.67 1006.25 1006.83 1007.41 1008.13 1008.71 1009.34 1009.24 1009.04 1008.64 1008.03 1007.05 1006.28 1005.67 1005.47 1005.51 1005.90 1006.37 1007.27 1008.16 1008.51 1009.01 1010.15 1011.23 1012.24
1017.88 1017.25 1016.57 1015.88 1015.19 1014.48 1013.85 1013.27 1012.70 1012.18 1011.99 1011.72 1011.62 1011.44 1011.36 1011.48 1008.51 1003.97 1003.08 1004.17 1005.40 1006.13 1006.75 1007.42 1008.19 1008.79 1009.02 1008.81 1008.39 1008.19 1007.06 1006.73 1005.75 1005.37 1005.16 1005.19 1005.63 1006.13 1006.69 1006.98 1007.60 1008.65 1009.24 1010.26 1011.59
1017.74 1017.04 1016.22 1015.45 1014.72 1013.93 1013.19 1012.55 1012.00 1011.60 1011.28 1011.24 1011.23 1011.10 1011.43 1010.54 1006.79 1003.93 1003.88 1004.76 1005.63 1005.92 1006.23 1006.74 1007.59 1008.26 1008.48 1008.22 1008.02 1007.55 1006.54 1006.29 1005.57 1005.25 1004.95 1004.79 1005.17 1005.56 1006.79 1007.33 1008.21 1009.43 1010.28 1010.79 1011.46
1017.47 1016.72 1015.90 1015.02 1014.19 1013.34 1012.54 1011.79 1011.45 1010.92 1010.56 1010.65 1010.95 1011.00 1011.17 1009.08 1004.49 1004.23 1004.25 1005.17 1005.37 1005.74 1006.14 1006.43 1006.62 1007.10 1007.62 1007.64 1007.45 1006.43 1006.27 1005.89 1005.33 1004.69 1004.49 1004.75 1005.24 1005.51 1007.27 1007.76 1009.06 1009.32 1010.27 1011.03 1011.33
1017.31 1016.54 1015.67 1014.74 1013.86 1012.93 1012.05 1011.02 1011.05 1010.38 1009.65 1009.97 1010.65 1010.92 1010.57 1006.35 1004.44 1004.79 1005.20 1004.97 1005.07 1005.01 1005.77 1005.83 1006.09 1006.65 1006.99 1007.25 1006.65 1006.46 1006.33 1005.57 1004.87 1004.54 1004.65 1004.80 1005.87 1006.65 1007.35 1008.01 1009.11 1009.72 1010.28 1010.96 1011.37
1017.40 1016.50 1015.66 1014.63 1013.67 1012.73 1011.52 1010.41 1010.54 1009.90 1009.84 1010.03 1010.37 1010.55 1009.20 1005.56 1004.97 1004.50 1004.47 1004.75 1005.14 1005.51 1005.62 1005.70 1006.23 1006.54 1006.84 1006.65 1006.38 1006.41 1006.49 1006.15 1004.44 1003.95 1004.03 1004.49 1006.37 1007.37 1007.93 1008.52 1009.41 1010.10 1010.40 1010.85 1011.26
1017.35 1016.46 1015.32 1014.40 1013.41 1012.66 1011.25 1010.12 1009.93 1009.86 1009.95 1009.96 1010.24 1010.29 1007.53 1005.07 1004.78 1003.85 1003.86 1004.00 1004.76 1005.63 1005.89 1005.83 1006.51 1006.71 1006.77 1006.97 1007.14 1006.74 1006.43 1005.71 1004.87 1003.97 1004.28 1004.91 1006.21 1007.54 1008.11 1008.55 1009.21 1009.71 1010.11 1010.43 1011.04
1017.12 1016.11 1015.23 1014.02 1013.24 1012.33 1010.89 1009.67 1009.73 1009.88 1010.04 1009.95 1009.91 1010.15 1006.88 1005.45 1004.79 1003.83 1003.21 1003.53 1004.31 1005.62 1006.47 1006.29 1006.61 1006.83 1007.06 1007.18 1006.67 1006.71 1006.27 1005.29 1004.68 1004.22 1004.46 1005.06 1005.95 1007.05 1007.77 1008.15 1008.57 1009.29 1009.63 1009.84 1010.20
1016.98 1015.93 1015.14 1013.49 1013.00 1012.15 1011.28 1009.92 1010.49 1010.17 1009.57 1009.34 1008.70 1008.56 1006.48 1005.19 1004.22 1003.60 1003.16 1003.40 1003.90 1005.15 1005.95 1006.07 1006.55 1005.79 1005.45 1006.49 1006.45 1006.13 1005.73 1005.01 1004.04 1003.79 1004.00 1004.40 1005.29 1006.25 1007.11 1008.18 1008.59 1008.90 1009.23 1009.28 1009.43
1017.04 1016.11 1015.11 1013.57 1012.79 1012.01 1011.76 1011.63 1011.77 1011.86 1010.15 1008.33 1007.49 1007.35 1005.94 1005.62 1005.09 1004.01 1003.25 1003.63 1003.97 1004.67 1005.25 1006.02 1005.32 1005.29 1005.74 1006.15 1006.36 1006.12 1005.63 1004.80 1004.05 1003.23 1003.64 1004.38 1004.91 1005.77 1006.17 1006.23 1007.05 1007.94 1008.59 1008.51 1009.08
1016.89 1015.84 1014.80 1013.39 1012.51 1011.99 1012.27 1011.47 1011.41 1011.35 1011.29 1008.15 1006.92 1006.31 1005.67 1005.81 1005.39 1004.65 1004.09 1003.63 1003.81 1004.55 1004.70 1004.69 1004.07 1004.77 1005.08 1005.17 1005.53 1005.34 1005.10 1004.65 1004.41 1003.75 1003.73 1004.49 1005.48 1006.00 1006.41 1006.81 1007.18 1007.54 1007.60 1008.03 1007.91
1016.64 1015.57 1014.73 1013.28 1012.57 1012.79 1011.93 1010.97 1011.19 1011.00 1010.72 1008.09 1006.73 1005.79 1005.39 1005.27 1005.15 1004.55 1004.11 1003.95 1003.76 1003.92 1004.44 1004.37 1003.57 1003.84 1004.13 1004.00 1004.29 1004.25 1004.10 1004.22 1004.26 1004.51 1004.33 1004.53 1005.31 1005.32 1005.34 1005.53 1006.05 1006.03 1006.37 1006.80 1007.12
1016.31 1015.18 1014.40 1013.75 1013.50 1012.78 1011.49 1010.85 1010.55 1010.88 1009.97 1007.79 1007.15 1006.07 1006.22 1006.35 1006.37 1005.18 1004.57 1004.14 1004.48 1004.20 1004.23 1003.22 1002.89 1002.84 1003.09 1002.55 1003.19 1002.76 1003.59 1003.82 1004.18 1004.58 1004.79 1004.77 1004.94 1004.00 1004.11 1004.43 1004.58 1004.34 1004.68 1005.24 1005.79
1016.12 1014.78 1014.23 1013.97 1013.83 1012.29 1011.22 1010.51 1010.58 1011.24 1009.92 1008.79 1008.13 1007.59 1007.53 1007.49 1007.30 1006.56 1005.91 1005.68 1005.71 1005.46 1004.54 1003.93 1002.69 1002.18 1001.89 1002.38 1002.73 1003.05 1003.42 1003.85 1004.17 1004.63 1004.47 1004.30 1004.58 1003.11 1002.62 1002.25 1002.21 1003.04 1003.41 1003.93 1004.59
1016.09 1014.58 1013.96 1013.64 1013.13 1011.57 1011.06 1010.99 1011.63 1011.34 1010.19 1010.15 1009.57 1009.02 1008.97 1008.99 1008.85 1008.46 1009.04 1008.97 1008.84 1007.85 1007.17 1005.65 1003.49 1002.47 1002.00 1002.32 1002.59 1002.95 1003.78 1004.70 1005.01 1004.69 1003.67 1003.66 1003.68 1001.45 1000.47 999.89 1000.23 1001.18 1001.56 1002.36 1003.13
1015.90 1014.39 1013.64 1013.05 1011.97 1011.56 1011.57 1012.04 1012.31 1011.99 1011.33 1010.65 1010.39 1010.03 1010.26 1010.28 1010.45 1010.17 1010.15 1010.82 1010.99 1010.55 1009.91 1008.80 1005.89 1003.79 1002.59 1002.14 1002.23 1002.60 1003.28 1003.90 1004.37 1004.56 1003.90 1003.02 1001.95 999.59 999.11 998.72 998.79 999.49 1000.11 1000.95 1001.94
1015.70 1014.40 1013.71 1012.48 1011.73 1011.69 1012.78 1013.58 1013.70 1013.07 1012.36 1011.57 1011.18 1011.16 1011.41 1011.27 1011.31 1011.38 1011.64 1011.90 1012.30 1012.01 1011.81 1011.03 1008.70 1005.88 1004.62 1003.69 1002.31 1002.27 1002.29 1002.91 1003.93 1004.65 1004.00 1002.11 1000.85 999.23 998.64 998.41 998.53 998.91 999.72 1000.08 1000.66
1016.95 1016.07 1014.15 1012.38 1011.91 1012.38 1013.87 1014.63 1014.22 1013.74 1012.85 1012.17 1012.15 1012.12 1012.35 1012.44 1012.38 1012.35 1012.18 1012.24 1012.60 1012.66 1012.35 1012.44 1011.01 1007.84 1005.85 1004.18 1001.83 1001.27 1002.06 1002.86 1003.45 1003.86 1003.55 1001.71 1000.37 998.52 998.27 998.12 997.91 998.01 998.39 998.63 999.10
1017.38 1016.37 1014.03 1012.59 1012.35 1013.92 1015.60 1015.79 1014.94 1014.26 1013.84 1013.33 1013.15 1013.11 1013.31 1013.39 1013.25 1013.11 1012.76 1012.63 1012.80 1012.89 1012.61 1012.77 1012.38 1009.27 1007.57 1005.47 1003.76 1002.54 1002.37 1002.53 1002.64 1003.00 1002.56 1001.64 999.53 997.71 997.21 997.08 997.33 997.17 997.16 997.21 997.61
1018.69 1017.48 1014.84 1013.48 1015.05 1017.05 1017.49 1016.99 1016.07 1014.91 1014.49 1014.15 1013.85 1014.03 1014.13 1014.12 1013.88 1013.52 1013.11 1012.71 1012.78 1013.01 1013.09 1013.39 1012.92 1011.36 1009.01 1006.13 1005.25 1005.29 1004.04 1002.76 1002.50 1002.65 1002.08 1000.79 997.78 996.92 996.39 996.29 996.55 996.41 996.20 995.91 996.15
1019.90 1018.90 1016.20 1015.48 1018.25 1019.09 1018.59 1017.68 1016.58 1015.75 1015.29 1015.07 1015.02 1015.39 1015.15 1014.96 1014.77 1014.02 1013.61 1012.97 1012.95 1013.13 1013.29 1013.43 1013.48 1012.40 1009.16 1006.96 1006.40 1006.24 1005.35 1004.48 1002.99 1002.16 1001.10 1000.17 996.81 996.71 996.35 996.08 995.97 995.93 995.77 995.52 995.57
1020.50 1019.98 1019.08 1019.00 1020.07 1020.22 1019.73 1018.48 1017.33 1016.25 1016.09 1016.22 1016.27 1015.97 1016.44 1015.50 1015.18 1014.85 1014.30 1013.52 1013.20 1013.26 1013.49 1013.61 1013.91 1013.21 1011.47 1010.86 1010.83 1009.00 1006.95 1005.71 1005.51 1003.20 1000.43 997.99 997.98 997.13 996.73 996.44 996.19 995.50 995.29 994.99 995.02
1020.91 1021.38 1021.06 1020.93 1020.85 1020.82 1020.47 1019.33 1018.13 1017.17 1016.90 1016.82 1016.83 1017.16 1017.14 1016.34 1015.58 1015.04 1014.57 1014.22 1013.61 1013.52 1014.15 1014.35 1014.49 1013.85 1012.73 1011.25 1010.71 1009.80 1007.99 1005.51 1005.00 1002.72 1000.69 998.48 997.41 997.01 996.61 996.11 995.86 995.41 994.12 993.71 993.25
1021.19 1021.36 1021.35 1021.11 1020.96 1020.59 1020.21 1019.36 1018.63 1017.89 1017.45 1016.81 1016.97 1016.91 1016.60 1016.37 1015.83 1015.35 1015.01 1014.80 1014.22 1014.28 1014.67 1015.21 1014.73 1014.15 1012.27 1010.75 1009.99 1008.91 1006.75 1005.26 1003.00 1002.03 1000.67 998.75 997.08 996.61 997.00 996.69 996.71 996.13 994.40 993.37 992.23
1021.05 1020.89 1020.93 1020.99 1020.83 1020.65 1020.23 1019.65 1019.00 1018.55 1017.40 1016.70 1016.63 1016.51 1015.98 1015.18 1014.71 1014.54 1014.48 1014.48 1014.41 1014.50 1015.07 1015.31 1015.11 1014.51 1011.99 1011.23 1009.97 1007.36 1005.97 1004.38 1002.65 1001.82 1000.72 999.58 998.73 998.45 997.75 997.88 998.14 997.35 995.54 994.09 992.59
Thickness
5711 5714 5717 5720 5723 5727 5730 5735 5738 5741 5743 5747 5750 5753 5755 5756 5757 5760 5768 5795 5795 5798 5797 5790 5784 5783 5782 5777 5785 5790 5757 5749 5768 5772 5786 5804 5791 5804 5803 5789 5795 5792 5784 5785 5779
5708 5712 5716 5719 5723 5726 5730 5734 5738 5742 5744 5746 5748 5751 5754 5756 5756 5764 5806 5804 5801 5797 5792 5783 5774 5775 5764 5770 5776 5769 5754 5767 5793 5800 5793 5803 5802 5792 5788 5787 5781 5782 5784 5781 5778
5704 5708 5712 5717 5721 5724 5729 5734 5738 5741 5744 5747 5748 5750 5752 5752 5755 5791 5822 5810 5804 5797 5795 5789 5783 5775 5761 5769 5772 5773 5761 5783 5793 5804 5806 5799 5799 5803 5786 5773 5783 5780 5780 5780 5778
5700 5704 5709 5713 5718 5723 5728 5732 5737 5741 5743 5746 5746 5748 5749 5748 5763 5808 5821 5811 5802 5796 5790 5782 5775 5763 5757 5759 5774 5762 5784 5785 5794 5802 5802 5800 5805 5795 5795 5793 5800 5794 5794 5788 5780
5697 5701 5706 5711 5716 5722 5727 5732 5736 5740 5742 5743 5745 5746 5744 5746 5764 5808 5809 5802 5796 5792 5785 5779 5770 5762 5755 5761 5771 5768 5780 5787 5797 5800 5803 5811 5802 5801 5795 5800 5797 5790 5787 5782 5780
5694 5698 5703 5709 5714 5720 5725 5731 5734 5738 5741 5740 5739 5741 5740 5739 5794 5800 5801 5793 5791 5786 5781 5780 5776 5771 5759 5763 5767 5780 5780 5783 5792 5801 5805 5802 5800 5802 5792 5797 5786 5787 5783 5781 5779
5691 5694 5699 5705 5711 5717 5723 5730 5729 5735 5740 5738 5733 5734 5736 5756 5790 5788 5784 5787 5788 5787 5775 5781 5779 5773 5767 5765 5777 5774 5764 5779 5789 5799 5794 5804 5782 5782 5792 5792 5781 5780 5782 5781 5779
5684 5688 5693 5700 5707 5712 5721 5729 5727 5731 5731 5730 5728 5728 5733 5769 5778 5780 5783 5781 5782 5778 5775 5776 5775 5769 5765 5772 5770 5762 5758 5743 5784 5801 5802 5800 5762 5779 5789 5785 5775 5776 5777 5778 5777
5677 5681 5688 5693 5700 5704 5715 5723 5723 5723 5721 5723 5720 5718 5728 5766 5767 5782 5783 5776 5773 5768 5766 5771 5764 5755 5759 5746 5734 5744 5733 5750 5766 5800 5791 5792 5768 5778 5787 5783 5777 5777 5777 5777 5774
5670 5675 5678 5687 5692 5697 5707 5716 5716 5712 5710 5714 5715 5712 5739 5746 5755 5769 5780 5775 5765 5754 5745 5748 5744 5734 5731 5727 5723 5728 5739 5755 5758 5784 5787 5783 5773 5779 5783 5784 5781 5778 5779 5779 5777
5661 5666 5667 5678 5681 5686 5693 5703 5694 5693 5700 5700 5709 5712 5729 5744 5757 5758 5769 5761 5756 5743 5726 5736 5722 5734 5752 5742 5750 5753 5755 5756 5774 5789 5784 5785 5779 5780 5784 5779 5775 5777 5778 5778 5780
5649 5651 5653 5663 5666 5671 5671 5672 5668 5666 5666 5698 5705 5708 5723 5728 5721 5737 5755 5741 5737 5727 5731 5717 5723 5748 5746 5740 5739 5740 5740 5750 5769 5790 5781 5777 5779 5780 5784 5789 5785 5780 5779 5783 5781
5635 5636 5639 5646 5650 5652 5646 5652 5654 5654 5646 5673 5691 5699 5705 5709 5700 5712 5729 5732 5727 5717 5722 5718 5741 5747 5741 5738 5732 5734 5737 5747 5751 5773 5778 5767 5755 5766 5777 5781 5785 5784 5788 5787 5788
5622 5624 5626 5632 5636 5629 5633 5640 5637 5637 5616 5649 5668 5682 5692 5694 5690 5709 5718 5720 5721 5716 5716 5714 5744 5737 5733 5736 5742 5724 5758 5759 5757 5745 5734 5764 5720 5752 5777 5782 5782 5788 5792 5792 5792
5617 5621 5622 5624 5623 5628 5636 5636 5637 5627 5598 5649 5646 5669 5667 5661 5667 5678 5702 5703 5697 5710 5711 5719 5733 5728 5727 5747 5750 5754 5759 5757 5755 5740 5735 5746 5729 5756 5775 5774 5782 5795 5805 5804 5800
5614 5620 5619 5619 5616 5626 5632 5634 5630 5603 5596 5621 5632 5632 5634 5636 5646 5660 5667 5677 5681 5682 5702 5711 5738 5736 5745 5749 5748 5760 5748 5746 5746 5739 5712 5735 5738 5749 5768 5791 5801 5802 5809 5810 5808
5608 5615 5615 5614 5614 5624 5625 5620 5595 5587 5615 5603 5605 5615 5617 5613 5617 5629 5621 5621 5622 5640 5635 5666 5708 5729 5740 5721 5735 5735 5711 5684 5683 5691 5703 5739 5726 5779 5800 5820 5820 5813 5820 5822 5820
5601 5607 5607 5608 5615 5619 5616 5602 5593 5598 5594 5604 5601 5605 5598 5603 5597 5603 5603 5597 5602 5608 5611 5612 5662 5704 5725 5720 5716 5722 5716 5682 5667 5676 5714 5742 5714 5778 5820 5830 5836 5832 5829 5829 5825
5597 5604 5604 5610 5613 5612 5596 5568 5572 5575 5582 5584 5584 5581 5576 5588 5588 5586 5579 5580 5583 5587 5587 5593 5626 5670 5690 5698 5723 5714 5706 5734 5703 5702 5699 5729 5746 5793 5812 5814 5823 5825 5823 5824 5828
5584 5582 5593 5608 5607 5597 5574 5564 5564 5567 5570 5571 5563 5567 5559 5560 5562 5563 5567 5573 5573 5577 5581 5581 5592 5643 5666 5689 5726 5729 5729 5705 5687 5685 5680 5709 5732 5767 5790 5804 5817 5824 5830 5836 5840
5573 5576 5591 5597 5595 5571 5544 5541 5550 5553 5551 5547 5543 5545 5541 5542 5544 5544 5552 5558 5561 5563 5572 5571 5577 5623 5641 5667 5693 5709 5710 5711 5715 5698 5700 5689 5724 5782 5802 5815 5818 5832 5841 5846 5849
5554 5565 5578 5583 5552 5523 5525 5527 5534 5538 5535 5530 5532 5527 5526 5525 5525 5529 5533 5543 5550 5550 5553 5555 5558 5586 5614 5662 5678 5673 5687 5716 5700 5692 5692 5705 5746 5802 5811 5821 5825 5833 5846 5855 5859
5538 5533 5557 5559 5512 5502 5507 5517 5522 5520 5516 5514 5511 5502 5503 5504 5503 5510 5517 5531 5535 5535 5540 5549 5547 5569 5622 5656 5655 5647 5662 5677 5698 5703 5701 5709 5756 5797 5806 5818 5825 5828 5837 5851 5860
5529 5526 5523 5517 5499 5494 5489 5495 5501 5507 5500 5492 5485 5481 5472 5485 5486 5491 5498 5512 5519 5523 5536 5539 5533 5551 5587 5593 5592 5611 5640 5659 5659 5675 5727 5736 5756 5775 5791 5801 5816 5828 5837 5847 5856
5518 5509 5503 5490 5489 5478 5472 5477 5488 5484 5481 5475 5463 5450 5447 5463 5472 5474 5487 5493 5503 5513 5508 5514 5520 5540 5559 5587 5596 5608 5628 5657 5657 5688 5700 5751 5754 5773 5785 5805 5819 5828 5844 5847 5861
5513 5506 5494 5498 5486 5485 5471 5474 5473 5471 5466 5466 5453 5459 5459 5450 5458 5463 5467 5476 5483 5492 5488 5486 5516 5521 5558 5594 5604 5612 5641 5659 5683 5695 5709 5750 5763 5787 5785 5797 5802 5811 5833 5848 5865
5510 5507 5502 5495 5487 5479 5470 5464 5458 5451 5457 5464 5454 5448 5446 5458 5468 5464 5463 5466 5475 5474 5470 5472 5500 5516 5549 5578 5586 5626 5642 5665 5684 5692 5708 5736 5757 5760 5773 5782 5786 5799 5822 5843 5865